Weather History for Ft Riley, KS

Change the Weather History Date:

Monday, December 23, 2013

  Actual Average (KMHK) Record (KMHK)
Temperature  
Mean Temperature 6 °F 29 °F  
Max Temperature 15 °F 40 °F 48 °F (2005)
Min Temperature -3 °F 18 °F -6 °F (2013)
Degree Days  
Heating Degree Days 59 36  
Month to date heating degree days 772  
Since 1 July heating degree days 1847  
Cooling Degree Days 0 0  
Month to date cooling degree days 0  
Year to date cooling degree days 1362  
Moisture  
Dew Point 6 °F    
Average Humidity 86    
Maximum Humidity 100    
Minimum Humidity 56    
Precipitation  
Precipitation 0.02 in 0.03 in 0.23 in (1997)
Month to date precipitation 0.80  
Year to date precipitation 32.33  
Sea Level Pressure  
Sea Level Pressure 30.58 in    
Wind  
Wind Speed 2 mph (NNE)    
Max Wind Speed 9 mph    
Max Gust Speed -    
Visibility 7 miles    
Events Snow    
T = Trace of Precipitation, MM = Missing Value Source: NWS Daily Summary

Daily Weather History Graph

Daily Weather History Graph

Search for Another Location

Airport:

Trip Planner

Search our weather history database for the weather conditions in past years. The results will help you decide how hot, cold, wet, or windy it might be!

Date:

Astronomy

Dec. 23, 2013 Rise Set
Actual Time 7:43 AM CST 5:09 PM CST
Civil Twilight 7:13 AM CST 5:39 PM CST
Nautical Twilight 6:39 AM CST 6:12 PM CST
Astronomical Twilight 6:07 AM CST 6:45 PM CST
Moon 11:17 PM CST (12/23) 11:11 AM CST (12/23)
Length of Visible Light 10h 25m
Length of Day
9h 25m
Waning Gibbous, 68% of the Moon is Illuminated
Dec 23
Waning Gibbous
Dec 25
Last Quarter
Jan 1
New
Jan 7
First Quarter
Jan 15
Full

Hourly Weather History & Observations

Time (CST) Temp. Windchill Dew Point Humidity Pressure Visibility Wind Dir Wind Speed Gust Speed Precip Events Conditions
12:58 AM -3.5 °F - -7.2 °F 84% 30.48 in 10.0 mi Calm Calm - N/A   Mostly Cloudy
1:58 AM 1.9 °F -5.6 °F -1.1 °F 87% 30.47 in 10.0 mi NNE 3.5 mph - N/A   Overcast
2:58 AM 3.2 °F -6.2 °F 0.1 °F 87% 30.51 in 10.0 mi NE 4.6 mph - N/A   Overcast
3:58 AM 5.2 °F -5.4 °F 2.5 °F 89% 30.52 in 10.0 mi NNE 5.8 mph - N/A   Overcast
4:37 AM 8.6 °F 2.0 °F 5.0 °F 85% 30.48 in 9.0 mi NNE 3.5 mph - N/A Snow Light Snow
4:42 AM 8.6 °F - 5.0 °F 85% 30.48 in 4.0 mi NE 2.3 mph - N/A Snow Light Snow
4:47 AM 8.6 °F - 5.0 °F 85% 30.48 in 3.0 mi Calm Calm - N/A Snow Light Snow
4:58 AM 8.2 °F - 6.1 °F 91% 30.54 in 4.0 mi Calm Calm - 0.00 in Snow Light Snow
5:03 AM 8.6 °F - 6.8 °F 92% 30.48 in 2.0 mi Calm Calm - N/A Snow Light Snow
5:08 AM 8.6 °F - 6.8 °F 92% 30.49 in 1.8 mi Calm Calm - N/A Snow Light Snow
5:13 AM 8.6 °F - 6.8 °F 92% 30.48 in 2.0 mi East 1.2 mph - N/A Snow Light Snow
5:18 AM 8.6 °F - 6.8 °F 92% 30.49 in 2.5 mi Calm Calm - N/A Snow Light Snow
5:23 AM 8.6 °F - 6.8 °F 92% 30.49 in 3.0 mi East 1.2 mph - N/A Snow Light Snow
5:28 AM 8.6 °F - 6.8 °F 92% 30.49 in 3.0 mi Calm Calm - N/A Snow Light Snow
5:58 AM 9.5 °F - 7.7 °F 92% 30.57 in 4.0 mi Calm Calm - 0.01 in Snow Light Snow
6:13 AM 10.4 °F - 8.6 °F 92% 30.52 in 2.5 mi Calm Calm - N/A Snow Light Snow
6:23 AM 10.4 °F - 8.6 °F 92% 30.52 in 3.0 mi Calm Calm - N/A Snow Light Snow
6:33 AM 10.4 °F - 8.6 °F 92% 30.53 in 2.5 mi Calm Calm - N/A Snow Light Snow
6:38 AM 10.4 °F - 8.6 °F 92% 30.53 in 2.0 mi Variable 1.2 mph - N/A Snow Light Snow
6:43 AM 10.4 °F - 8.6 °F 92% 30.54 in 2.5 mi North 1.2 mph - N/A Snow Light Snow
6:48 AM 10.4 °F - 8.6 °F 92% 30.55 in 3.0 mi Calm Calm - N/A Snow Light Snow
6:58 AM 10.9 °F - 9.5 °F 94% 30.62 in 3.0 mi Calm Calm - 0.00 in Snow Light Snow
7:08 AM 10.4 °F - 8.6 °F 92% 30.55 in 4.0 mi NNE 2.3 mph - N/A Snow Light Snow
7:13 AM 10.4 °F - 8.6 °F 92% 30.55 in 3.0 mi NNE 1.2 mph - N/A Snow Light Snow
7:18 AM 10.4 °F - 8.6 °F 92% 30.55 in 3.0 mi NNE 1.2 mph - N/A Snow Light Snow
7:23 AM 10.4 °F - 8.6 °F 92% 30.55 in 4.0 mi North 1.2 mph - N/A Snow Light Snow
7:28 AM 10.4 °F - 8.6 °F 92% 30.55 in 5.0 mi NNE 1.2 mph - N/A Snow Light Snow
7:33 AM 10.4 °F - 8.6 °F 92% 30.56 in 3.0 mi NNE 2.3 mph - N/A Snow Light Snow
7:38 AM 10.4 °F - 8.6 °F 92% 30.56 in 2.5 mi NNE 2.3 mph - N/A Snow Light Snow
7:43 AM 10.4 °F - 8.6 °F 92% 30.56 in 3.0 mi NNE 2.3 mph - N/A Snow Light Snow
7:48 AM 10.4 °F - 8.6 °F 92% 30.56 in 3.0 mi North 2.3 mph - N/A Snow Light Snow
7:53 AM 10.4 °F - 8.6 °F 92% 30.57 in 4.0 mi North 2.3 mph - N/A Snow Light Snow
7:58 AM 10.4 °F 4.0 °F 8.6 °F 92% 30.64 in 8.0 mi North 3.5 mph - 0.01 in Snow Light Snow
8:03 AM 10.4 °F 4.0 °F 8.6 °F 92% 30.58 in 10.0 mi North 3.5 mph - N/A Snow Light Snow
8:08 AM 10.4 °F 2.2 °F 8.6 °F 92% 30.58 in 10.0 mi North 4.6 mph - N/A Snow Light Snow
8:13 AM 10.4 °F 0.8 °F 8.6 °F 92% 30.58 in 9.0 mi North 5.8 mph - N/A Snow Light Snow
8:18 AM 10.4 °F 2.2 °F 8.6 °F 92% 30.58 in 9.0 mi North 4.6 mph - N/A Snow Light Snow
8:28 AM 10.4 °F -0.4 °F 10.4 °F 100% 30.59 in 10.0 mi North 6.9 mph - N/A Snow Light Snow
8:48 AM 10.4 °F -1.5 °F 10.4 °F 100% 30.59 in 10.0 mi North 8.1 mph - N/A Snow Light Snow
8:58 AM 10.9 °F -0.8 °F 9.5 °F 94% 30.66 in 7.0 mi North 8.1 mph - 0.00 in Snow Light Snow
9:48 AM 10.4 °F -1.5 °F 8.6 °F 92% 30.62 in 7.0 mi North 8.1 mph - N/A Snow Light Snow
9:58 AM 10.4 °F -1.5 °F 8.8 °F 93% 30.69 in 8.0 mi NNE 8.1 mph - 0.00 in Snow Light Snow
10:03 AM 10.4 °F -2.4 °F 8.6 °F 92% 30.63 in 9.0 mi North 9.2 mph - N/A Snow Light Snow
10:23 AM 10.4 °F -2.4 °F 8.6 °F 92% 30.63 in 9.0 mi North 9.2 mph - N/A Snow Light Snow
10:33 AM 10.4 °F -2.4 °F 6.8 °F 85% 30.63 in 10.0 mi North 9.2 mph - N/A Snow Light Snow
10:58 AM 11.3 °F 1.9 °F 6.1 °F 80% 30.71 in 10.0 mi North 5.8 mph - 0.00 in Snow Light Snow
11:20 AM 12.2 °F 2.9 °F 5.0 °F 73% 30.63 in 10.0 mi North 5.8 mph - N/A   Overcast
11:58 AM 11.8 °F 3.9 °F 4.5 °F 72% 30.70 in 10.0 mi North 4.6 mph - 0.00 in   Mostly Cloudy
12:43 PM 14.0 °F - 5.0 °F 67% 30.60 in 10.0 mi Calm Calm - N/A   Overcast
12:48 PM 14.0 °F - 5.0 °F 67% 30.59 in 10.0 mi Variable 2.3 mph - N/A   Overcast
12:58 PM 13.8 °F - 4.8 °F 67% 30.68 in 10.0 mi South 2.3 mph - N/A   Overcast
1:08 PM 14.0 °F 8.2 °F 5.0 °F 67% 30.59 in 10.0 mi SSE 3.5 mph - N/A   Mostly Cloudy
1:18 PM 14.0 °F - 5.0 °F 67% 30.59 in 10.0 mi Variable 2.3 mph - N/A   Mostly Cloudy
1:58 PM 15.3 °F 5.4 °F 5.0 °F 64% 30.65 in 10.0 mi NW 6.9 mph - 0.00 in   Mostly Cloudy
2:58 PM 15.3 °F 7.9 °F 2.1 °F 56% 30.65 in 10.0 mi NNW 4.6 mph - N/A   Scattered Clouds
3:58 PM 13.1 °F - 2.1 °F 62% 30.65 in 10.0 mi South 1.2 mph - N/A   Clear
4:58 PM 8.2 °F -1.8 °F 1.8 °F 75% 30.65 in 10.0 mi WSW 5.8 mph - N/A   Scattered Clouds
5:58 PM 7.5 °F - 0.5 °F 73% 30.65 in 10.0 mi Calm Calm - N/A   Mostly Cloudy
6:58 PM 5.4 °F - 1.8 °F 85% 30.65 in 10.0 mi SSW 2.3 mph - N/A   Mostly Cloudy
7:58 PM 6.8 °F - 2.1 °F 81% 30.66 in 10.0 mi Calm Calm - N/A   Overcast
8:58 PM 8.2 °F - 3.6 °F 81% 30.65 in 10.0 mi Calm Calm - N/A   Overcast
9:58 PM 7.3 °F - 1.6 °F 77% 30.65 in 10.0 mi Calm Calm - N/A   Mostly Cloudy
10:58 PM 9.1 °F - 4.3 °F 81% 30.63 in 10.0 mi Calm Calm - N/A   Overcast
11:58 PM 9.7 °F - 3.7 °F 77% 30.63 in 10.0 mi Calm Calm - N/A   Overcast